Terug naar catalogus

STARLINK-11157

ActiefCommunicatieVLEO
NORAD 60122·PAYLOAD·🇺🇸 United States

Gelanceerd Jun 24, 2024 vanaf Vandenberg Space Force Base

Loading…

Volgende Passages (komende 24 uur)

TLE

VersSource: CelesTrak SupGP

Epoch: Sep 14, 2026, 21:20 UTC

1 60122C 24118K   26257.88937500  .00018365  00000+0  15119-3 0  2578
2 60122  53.1572   8.3795 0000994  77.1025 221.9619 15.69713436    18

Volg STARLINK-11157 in realtime met AllMySat

Download on the App Store